| time (UTC) | temp F | wind direction | speed knots | gust knots | rain 1hr in | rain 24hr in | rain mn in | humidity % | barometer mb |
| 20260507174608 | 79 | 277 | 0.9 | 5.2 | 0.00 | 0.00 | 0.00 | 22 | 1008.1 |
| 20260507173131 | 79 | 304 | 1.7 | 3.5 | 0.00 | 0.00 | 0.00 | 22 | 1008.4 |
| 20260507171552 | 77 | 254 | 0.9 | 4.3 | 0.00 | 0.00 | 0.00 | 22 | 1008.5 |
| 20260507170052 | 76 | 323 | 0.9 | 3.5 | 0.00 | 0.00 | 0.00 | 25 | 1008.7 |
| 20260507164553 | 74 | 328 | 0.0 | 3.5 | 0.00 | 0.00 | 0.00 | 26 | 1008.8 |
| 20260507163042 | 73 | 288 | 0.9 | 4.3 | 0.00 | 0.00 | 0.00 | 25 | 1009.0 |
| 20260507161540 | 73 | 251 | 0.9 | 4.3 | 0.00 | 0.00 | 0.00 | 26 | 1009.1 |
| 20260507160057 | 72 | 259 | 0.0 | 3.5 | 0.00 | 0.00 | 0.00 | 27 | 1009.3 |
| 20260507154535 | 70 | 321 | 0.9 | 3.5 | 0.00 | 0.00 | 0.00 | 29 | 1009.3 |
| 20260507153033 | 69 | 274 | 0.0 | 0.9 | 0.00 | 0.00 | 0.00 | 30 | 1009.5 |
| 20260507151529 | 69 | 224 | 0.0 | 0.9 | 0.00 | 0.00 | 0.00 | 32 | 1009.5 |
| 20260507150025 | 67 | 136 | 0.0 | 0.0 | 0.00 | 0.00 | 0.00 | 34 | 1009.7 |
| 20260507144532 | 67 | 108 | 0.0 | 0.9 | 0.00 | 0.00 | 0.00 | 35 | 1009.6 |
| 20260507143020 | 66 | 170 | 0.0 | 0.0 | 0.00 | 0.00 | 0.00 | 36 | 1009.8 |
| 20260507141523 | 65 | 176 | 0.0 | 0.0 | 0.00 | 0.00 | 0.00 | 39 | 1009.8 |
| 20260507140014 | 63 | 176 | 0.0 | 0.0 | 0.00 | 0.00 | 0.00 | 43 | 1009.8 |
| 20260507134512 | 61 | 46 | 0.0 | 0.0 | 0.00 | 0.00 | 0.00 | 45 | 1009.7 |
| 20260507133013 | 57 | 46 | 0.0 | 0.0 | 0.00 | 0.00 | 0.00 | 51 | 1009.7 |
| 20260507131510 | 55 | 46 | 0.0 | 0.0 | 0.00 | 0.00 | 0.00 | 52 | 1009.7 |
| 20260507130024 | 56 | 46 | 0.0 | 0.0 | 0.00 | 0.00 | 0.00 | 49 | 1009.4 |
| 20260507124512 | 55 | 46 | 0.0 | 0.0 | 0.00 | 0.00 | 0.00 | 47 | 1009.3 |
| 20260507123008 | 54 | 20 | 0.0 | 0.0 | 0.00 | 0.00 | 0.00 | 50 | 1009.2 |
| 20260507121508 | 54 | 20 | 0.0 | 0.0 | 0.00 | 0.00 | 0.00 | 49 | 1009.1 |
| 20260507120010 | 55 | 20 | 0.0 | 0.9 | 0.00 | 0.00 | 0.00 | 50 | 1009.3 |
| 20260507114504 | 55 | 349 | 0.0 | 0.0 | 0.00 | 0.00 | 0.00 | 49 | 1009.3 |
| 20260507113003 | 56 | 342 | 0.0 | 0.9 | 0.00 | 0.00 | 0.00 | 46 | 1009.3 |
| 20260507111503 | 54 | 351 | 0.0 | 0.0 | 0.00 | 0.00 | 0.00 | 51 | 1009.3 |
| 20260507110059 | 56 | 351 | 0.0 | 0.0 | 0.00 | 0.00 | 0.00 | 53 | 1009.4 |
| 20260507104556 | 57 | 351 | 0.0 | 0.0 | 0.00 | 0.00 | 0.00 | 51 | 1009.4 |
| 20260507103053 | 58 | 351 | 0.0 | 0.0 | 0.00 | 0.00 | 0.00 | 50 | 1009.2 |
| 20260507101602 | 59 | 351 | 0.0 | 0.9 | 0.00 | 0.00 | 0.00 | 40 | 1009.2 |
| 20260507100050 | 58 | 328 | 0.0 | 0.9 | 0.00 | 0.00 | 0.00 | 40 | 1009.3 |
| 20260507094549 | 59 | 326 | 0.0 | 0.0 | 0.00 | 0.00 | 0.00 | 40 | 1009.3 |
| 20260507093047 | 60 | 326 | 0.0 | 0.9 | 0.00 | 0.00 | 0.00 | 42 | 1009.4 |
| 20260507091545 | 60 | 326 | 0.0 | 1.7 | 0.00 | 0.00 | 0.00 | 41 | 1009.7 |
| 20260507090043 | 60 | 326 | 0.9 | 1.7 | 0.00 | 0.00 | 0.00 | 40 | 1009.9 |
| 20260507084544 | 61 | 325 | 0.9 | 1.7 | 0.00 | 0.00 | 0.00 | 37 | 1009.9 |
| 20260507083041 | 60 | 325 | 0.9 | 1.7 | 0.00 | 0.00 | 0.00 | 38 | 1009.8 |
| 20260507081540 | 61 | 314 | 0.0 | 1.7 | 0.00 | 0.00 | 0.00 | 41 | 1010.0 |
| 20260507080040 | 61 | 335 | 0.9 | 2.6 | 0.00 | 0.00 | 0.00 | 39 | 1009.9 |
| 20260507074539 | 59 | 335 | 0.9 | 1.7 | 0.00 | 0.00 | 0.00 | 44 | 1009.9 |
| 20260507073036 | 60 | 338 | 0.0 | 1.7 | 0.00 | 0.00 | 0.00 | 48 | 1009.8 |
| 20260507071533 | 60 | 97 | 0.0 | 0.0 | 0.00 | 0.00 | 0.00 | 45 | 1010.0 |
| 20260507070031 | 60 | 97 | 0.0 | 0.0 | 0.00 | 0.00 | 0.00 | 42 | 1009.9 |
| 20260507064530 | 60 | 97 | 0.0 | 0.9 | 0.00 | 0.00 | 0.00 | 44 | 1009.8 |
| 20260507063032 | 60 | 97 | 0.0 | 0.0 | 0.00 | 0.00 | 0.00 | 46 | 1009.8 |
| 20260507061529 | 62 | 97 | 0.0 | 0.0 | 0.00 | 0.00 | 0.00 | 42 | 1009.7 |
| 20260507060029 | 64 | 97 | 0.0 | 0.9 | 0.00 | 0.00 | 0.00 | 35 | 1009.7 |
| 20260507054528 | 63 | 97 | 0.0 | 0.9 | 0.00 | 0.00 | 0.00 | 37 | 1009.5 |
| 20260507053028 | 62 | 97 | 0.0 | 0.0 | 0.00 | 0.00 | 0.00 | 46 | 1009.4 |
| 20260507051527 | 63 | 97 | 0.0 | 0.9 | 0.00 | 0.00 | 0.00 | 44 | 1009.4 |
| 20260507050035 | 63 | 100 | 0.0 | 0.0 | 0.00 | 0.00 | 0.00 | 40 | 1009.2 |
| 20260507044526 | 66 | 100 | 0.0 | 0.9 | 0.00 | 0.00 | 0.00 | 34 | 1009.2 |
| 20260507043024 | 65 | 100 | 0.0 | 0.0 | 0.00 | 0.00 | 0.00 | 34 | 1009.2 |
| 20260507041538 | 66 | 100 | 0.0 | 0.0 | 0.00 | 0.00 | 0.00 | 34 | 1009.1 |
| 20260507040023 | 66 | 100 | 0.0 | 0.0 | 0.00 | 0.00 | 0.00 | 37 | 1009.0 |
| 20260507034521 | 68 | 100 | 0.0 | 0.0 | 0.00 | 0.00 | 0.00 | 34 | 1008.8 |
| 20260507033021 | 67 | 100 | 0.0 | 0.0 | 0.00 | 0.00 | 0.00 | 35 | 1008.6 |
| 20260507031520 | 69 | 100 | 0.0 | 2.6 | 0.00 | 0.00 | 0.00 | 30 | 1008.6 |
| 20260507030019 | 68 | 314 | 0.0 | 0.0 | 0.00 | 0.00 | 0.00 | 34 | 1008.4 |
| 20260507024519 | 70 | 313 | 0.0 | 0.9 | 0.00 | 0.00 | 0.00 | 30 | 1008.3 |
| 20260507023018 | 71 | 313 | 0.0 | 2.6 | 0.00 | 0.00 | 0.00 | 25 | 1008.1 |
| 20260507021518 | 72 | 323 | 0.0 | 0.0 | 0.00 | 0.00 | 0.00 | 25 | 1008.1 |
| 20260507020017 | 74 | 323 | 0.0 | 3.5 | 0.00 | 0.00 | 0.00 | 24 | 1007.9 |
| 20260507014525 | 76 | 306 | 1.7 | 4.3 | 0.00 | 0.00 | 0.00 | 22 | 1007.9 |
| 20260507013031 | 77 | 310 | 1.7 | 4.3 | 0.00 | 0.00 | 0.00 | 22 | 1007.9 |
| 20260507011530 | 77 | 314 | 2.6 | 7.0 | 0.00 | 0.00 | 0.00 | 21 | 1007.9 |
| 20260507010014 | 77 | 332 | 2.6 | 7.0 | 0.00 | 0.00 | 0.00 | 21 | 1007.9 |
| 20260507004517 | 78 | 316 | 1.7 | 7.8 | 0.00 | 0.00 | 0.00 | 21 | 1007.9 |
| 20260507003012 | 79 | 291 | 2.6 | 6.1 | 0.00 | 0.00 | 0.00 | 21 | 1007.9 |
| 20260507001513 | 79 | 333 | 1.7 | 4.3 | 0.00 | 0.00 | 0.00 | 22 | 1007.9 |
| 20260507000022 | 78 | 303 | 2.6 | 7.0 | 0.00 | 0.00 | 0.00 | 21 | 1007.9 |
| 20260506234512 | 78 | 326 | 4.3 | 9.6 | 0.00 | 0.00 | 0.00 | 22 | 1007.9 |
| 20260506233010 | 79 | 307 | 4.3 | 7.8 | 0.00 | 0.00 | 0.00 | 21 | 1007.9 |
| 20260506231508 | 80 | 271 | 0.9 | 6.1 | 0.00 | 0.00 | 0.00 | 22 | 1008.0 |
| 20260506230008 | 80 | 257 | 3.5 | 7.8 | 0.00 | 0.00 | 0.00 | 22 | 1008.1 |
| 20260506224505 | 78 | 323 | 3.5 | 9.6 | 0.00 | 0.00 | 0.00 | 23 | 1008.2 |
| 20260506223005 | 79 | 307 | 3.5 | 7.8 | 0.00 | 0.00 | 0.00 | 23 | 1008.3 |
| 20260506221604 | 79 | 236 | 0.9 | 6.1 | 0.00 | 0.00 | 0.00 | 23 | 1008.4 |
| 20260506220057 | 77 | 270 | 1.7 | 10.4 | 0.00 | 0.00 | 0.00 | 24 | 1008.6 |
| 20260506214607 | 76 | 284 | 1.7 | 7.8 | 0.00 | 0.00 | 0.00 | 26 | 1008.7 |
| 20260506213053 | 77 | 313 | 4.3 | 9.6 | 0.00 | 0.00 | 0.00 | 26 | 1008.9 |
| 20260506211550 | 77 | 319 | 1.7 | 5.2 | 0.00 | 0.00 | 0.00 | 27 | 1009.2 |
| 20260506210050 | 76 | 323 | 3.5 | 5.2 | 0.00 | 0.00 | 0.00 | 27 | 1009.3 |
| 20260506204549 | 76 | 289 | 0.9 | 6.1 | 0.00 | 0.00 | 0.00 | 28 | 1009.5 |
| 20260506203049 | 76 | 126 | 1.7 | 4.3 | 0.00 | 0.00 | 0.00 | 28 | 1009.7 |
| 20260506201544 | 75 | 333 | 0.9 | 3.5 | 0.00 | 0.00 | 0.00 | 30 | 1009.8 |
| 20260506200117 | 75 | 262 | 0.9 | 7.0 | 0.00 | 0.00 | 0.00 | 30 | 1010.0 |
| 20260506194543 | 74 | 316 | 1.7 | 5.2 | 0.00 | 0.00 | 0.00 | 31 | 1010.2 |
| 20260506193045 | 75 | 316 | 1.7 | 4.3 | 0.00 | 0.00 | 0.00 | 31 | 1010.4 |
| 20260506191541 | 74 | 106 | 2.6 | 7.0 | 0.00 | 0.00 | 0.00 | 29 | 1010.6 |
| 20260506190039 | 73 | 247 | 0.9 | 5.2 | 0.00 | 0.00 | 0.00 | 31 | 1010.8 |
| 20260506184536 | 72 | 256 | 1.7 | 6.1 | 0.00 | 0.00 | 0.00 | 32 | 1010.8 |
| 20260506183034 | 71 | 251 | 1.7 | 5.2 | 0.00 | 0.00 | 0.00 | 33 | 1011.0 |
| 20260506181535 | 70 | 322 | 0.9 | 5.2 | 0.00 | 0.00 | 0.00 | 37 | 1011.2 |
| 20260506180038 | 69 | 327 | 2.6 | 5.2 | 0.00 | 0.00 | 0.00 | 35 | 1011.4 |